Location: Fredericksburg
(30.2750°N, 98.8720°W)
Time: 18:11:09
(UTC-06:00)

Amateur Radio Satellites - All Passes

Search period start: 22 November 2017 17:41
Search period end: 23 November 2017 17:41
Location: Fredericksburg, 30.2750°N, 98.8720°W

Satellite Date Start Highest point End Downlink Frequencies (MHz)
Time Altitude Azimuth
XW-2C 22 Nov 17:48:23 17:52:01 53° 77° (ENE) 17:55:40 145.795 - 145.815
LilacSat-2 22 Nov 17:52:21 17:56:03 68° 77° (ENE) 17:59:47 437.200
XW-2F 22 Nov 17:57:30 18:01:10 67° 76° (ENE) 18:04:52 145.980 - 146.000
CUBEBUG 2 22 Nov 18:08:11 18:09:33 11° 68° (ENE) 18:10:55 437.445
KAITUO 1B 22 Nov 18:22:32 18:26:11 69° 259° (W) 18:29:51 145.475/437.950
SRMSAT 22 Nov 18:24:51 18:29:52 29° 176° (S) 18:34:54 437.500
RS-15 22 Nov 18:26:09 18:38:18 74° 113° (ESE) 18:50:34 29.354- 29.394
JUGNU 22 Nov 18:26:50 18:31:12 22° 192° (SSW) 18:35:32 437.505
CUTE 1.7 + AOD 2 22 Nov 18:28:21 18:32:06 33° 73° (ENE) 18:35:52 437.475
DOVE 4 22 Nov 18:29:24 18:29:57 10° 270° (W) 18:30:29 437.250
KKS-1 22 Nov 18:29:53 18:33:46 30° 288° (WNW) 18:37:37 437.445
CUTE-I 22 Nov 18:30:51 18:36:08 64° 258° (WSW) 18:41:29 437.470
YUBILEINY 22 Nov 18:39:35 18:46:46 29° 275° (W) 18:53:57 435.215
XW-2D 22 Nov 18:42:31 18:45:32 23° 263° (W) 18:48:33 145.860 - 145.880
STARS 22 Nov 18:49:03 18:53:16 48° 286° (WNW) 18:57:26 437.465
SEEDS 22 Nov 18:55:22 18:59:16 41° 75° (ENE) 19:03:11 437.485
HO-68 22 Nov 18:58:07 19:05:18 87° 75° (ENE) 19:12:32 435.675
XW-2B 22 Nov 18:58:12 19:00:29 16° 265° (W) 19:02:47 145.730 - 145.750
AAUSAT CUBESAT 2 22 Nov 18:58:20 19:01:01 17° 71° (ENE) 19:03:45 437.432
UWE-3 22 Nov 18:59:07 19:02:42 24° 72° (ENE) 19:06:14 435.000/436.395/437.385
NUDT-PHONESAT 22 Nov 19:05:30 19:08:00 18° 264° (W) 19:10:31 437.300
ISS 22 Nov 19:21:11 19:24:03 28° 129° (SE) 19:26:55 437.550
AO-73 22 Nov 19:35:29 19:39:09 27° 73° (ENE) 19:42:44 145.935
CUBEBUG 2 22 Nov 19:41:11 19:45:41 52° 260° (W) 19:50:06 437.445
Oscar 11 22 Nov 19:50:01 19:53:34 26° 72° (ENE) 19:57:09 .
XW-2A 22 Nov 19:59:59 20:03:11 48° 260° (W) 20:06:24 145.665 - 145.685
CUTE 1.7 + AOD 2 22 Nov 20:05:46 20:07:57 14° 266° (W) 20:10:08 437.475
nSIGHT-1 22 Nov 20:07:33 20:10:39 47° 317° (NW) 20:13:46 .
SRMSAT 22 Nov 20:13:36 20:18:34 28° 186° (S) 20:23:34 437.500
SO-50 22 Nov 20:16:53 20:19:10 14° 108° (ESE) 20:21:26 436.795
STRAND 1 22 Nov 20:17:25 20:22:29 67° 284° (WNW) 20:27:30 437.568
JUGNU 22 Nov 20:18:58 20:19:36 10° 200° (SSW) 20:20:14 437.505
ZACube-1 22 Nov 20:20:54 20:25:14 66° 259° (WSW) 20:29:28 437.345
FO-29 22 Nov 20:21:52 20:28:47 35° 96° (E) 20:35:09 435.910
AAUSAT CUBESAT 2 22 Nov 20:32:45 20:36:13 26° 263° (W) 20:39:43 437.432
SEEDS 22 Nov 20:34:03 20:35:03 11° 267° (W) 20:36:04 437.485
UWE-3 22 Nov 20:35:33 20:39:01 22° 263° (W) 20:42:25 435.000/436.395/437.385
RS-15 22 Nov 20:41:30 20:51:50 31° 313° (NW) 21:02:13 29.354- 29.394
DELFI C3 22 Nov 20:47:16 20:50:17 21° 72° (ENE) 20:53:19 145.870
HO-68 22 Nov 20:51:09 20:53:37 12° 267° (W) 20:56:05 435.675
ISS 22 Nov 20:58:08 21:00:32 18° 322° (NW) 21:02:55 437.550
AO-73 22 Nov 21:12:22 21:15:18 18° 264° (W) 21:18:12 145.935
EO-88 22 Nov 21:24:36 21:27:42 27° 73° (ENE) 21:30:47 145.990 - 145.960
Oscar 11 22 Nov 21:26:37 21:29:38 19° 265° (W) 21:32:39 .
Max Valier Satellite 22 Nov 21:29:59 21:33:31 51° 77° (ENE) 21:37:04 145.860
NO-84 22 Nov 21:46:57 21:49:47 17° 39° (NE) 21:52:35 435.350 FM
SO-50 22 Nov 21:54:59 21:59:11 41° 301° (WNW) 22:03:26 436.795
SRMSAT 22 Nov 22:03:19 22:07:13 18° 195° (SSW) 22:11:07 437.500
FO-29 22 Nov 22:06:39 22:13:38 38° 291° (WNW) 22:20:08 435.910
UNISAT 6 22 Nov 22:19:56 22:24:12 82° 101° (E) 22:28:27 437.425
DELFI C3 22 Nov 22:22:00 22:24:52 19° 264° (W) 22:27:46 145.870
TIGRISAT 22 Nov 22:23:46 22:28:02 83° 103° (ESE) 22:32:16 435.000
PRISM 22 Nov 22:45:29 22:49:30 47° 100° (E) 22:53:28 437.425
ESTCUBE 1 22 Nov 22:54:12 22:58:14 35° 73° (ENE) 23:02:18 437.505/2401.250
EO-88 22 Nov 22:59:55 23:01:19 12° 266° (W) 23:02:42 145.990 - 145.960
LO-87 22 Nov 23:15:45 23:19:22 78° 260° (W) 23:22:58 145.935 - 145.965
NO-84 22 Nov 23:23:13 23:27:23 54° 234° (SW) 23:31:25 435.350 FM
EO-79 22 Nov 23:23:36 23:24:19 10° 93° (E) 23:25:01 145.935-145.965
POLYITAN 1 22 Nov 23:37:34 23:40:17 17° 95° (E) 23:42:59 437.675
AIST 2D 22 Nov 23:46:58 23:50:31 86° 279° (W) 23:54:02 435.315
SPROUT 22 Nov 23:49:13 23:53:02 32° 73° (ENE) 23:56:50 437.525
PCSat 22 Nov 23:50:06 23:55:27 72° 112° (ESE) 00:00:52 145.827
O/OREOS (USA 219) 22 Nov 23:53:09 23:57:40 80° 253° (WSW) 00:02:08 437.305
QB50P2 23 Nov 00:00:01 00:03:55 37° 99° (E) 00:07:48 145.880/145.840
PRISM 23 Nov 00:23:52 00:24:16 10° 293° (WNW) 00:24:40 437.425
ESTCUBE 1 23 Nov 00:32:27 00:35:04 15° 265° (W) 00:37:41 437.505/2401.250
VELOX 1 23 Nov 00:42:06 00:46:31 90° 221° (SW) 00:50:59 145.980
DUCHIFAT 1 23 Nov 00:46:15 00:50:24 81° 283° (WNW) 00:54:33 145.980
EO-79 23 Nov 00:56:14 01:00:12 43° 285° (WNW) 01:04:09 145.935-145.965
NANOSAT C BR1 23 Nov 00:58:06 01:02:06 47° 285° (WNW) 01:06:06 145.865
POLYITAN 1 23 Nov 01:12:28 01:16:01 27° 288° (WNW) 01:19:33 437.675
DX 1 23 Nov 01:21:30 01:25:43 50° 74° (ENE) 01:29:57 434.975-435.025
SPROUT 23 Nov 01:26:23 01:28:54 15° 265° (W) 01:31:26 437.525
RS-15 23 Nov 01:27:00 01:31:41 13° 27° (NNE) 01:36:17 29.354- 29.394
BEESAT 3 23 Nov 01:29:19 01:32:26 22° 110° (ESE) 01:35:34 437.485
Oscar 19 23 Nov 01:30:17 01:34:55 34° 98° (E) 01:39:34 437.125/150
BUGSAT 1 23 Nov 01:31:02 01:35:02 73° 101° (ESE) 01:39:01 437.445
PCSat 23 Nov 01:36:54 01:39:20 13° 308° (NW) 01:41:47 145.827
QB50P2 23 Nov 01:37:24 01:39:18 13° 291° (WNW) 01:41:13 145.880/145.840
UKube-1 23 Nov 01:59:12 02:03:30 88° 87° (E) 02:07:51 .
50 SAT 23 Nov 02:02:04 02:04:54 28° 261° (W) 02:07:44 437.505
BEESAT 23 Nov 02:06:42 02:08:29 12° 66° (ENE) 02:10:15 436.000
MOZHAYETS 4 23 Nov 02:09:53 02:12:45 17° 69° (ENE) 02:15:36
Gurwin Techsat 1B 23 Nov 02:11:02 02:16:19 63° 101° (ESE) 02:21:33 435.225
ITUPSAT 1 23 Nov 02:16:40 02:19:28 16° 68° (ENE) 02:22:16 437.325
M-CUBED/EXP-1 PRIME 23 Nov 02:29:58 02:33:12 19° 100° (E) 02:36:26 437.505
nSIGHT-1 23 Nov 02:40:18 02:41:27 11° 34° (NE) 02:42:36 .
BEESAT 2 23 Nov 02:44:51 02:48:40 46° 113° (ESE) 02:52:32 435.950
AO-7 23 Nov 03:05:46 03:12:47 29° 99° (E) 03:19:45 .
BEESAT 3 23 Nov 03:06:45 03:09:50 21° 304° (NW) 03:12:57 437.485
Oscar 19 23 Nov 03:10:05 03:13:58 22° 291° (WNW) 03:17:52 437.125/150
AO-85 23 Nov 03:12:09 03:15:29 29° 112° (ESE) 03:18:53 145.980
ITAMSAT 1 23 Nov 03:27:39 03:31:46 24° 97° (E) 03:35:51 435.822/435.867
ISS 23 Nov 03:29:36 03:32:27 27° 40° (NE) 03:35:17 437.550
RS-15 23 Nov 03:36:47 03:48:04 49° 55° (NE) 03:58:43 29.354- 29.394
BEESAT 23 Nov 03:41:03 03:45:43 54° 259° (W) 03:50:23 436.000
MOZHAYETS 4 23 Nov 03:45:25 03:49:34 34° 262° (W) 03:53:43
ITUPSAT 1 23 Nov 03:52:23 03:56:53 41° 260° (W) 04:01:24 437.325
Gurwin Techsat 1B 23 Nov 03:53:27 03:55:38 13° 295° (WNW) 03:57:49 435.225
CUBESAT XI-V 23 Nov 04:02:00 04:06:32 68° 76° (ENE) 04:11:06 437.345
M-CUBED/EXP-1 PRIME 23 Nov 04:03:21 04:07:32 34° 291° (WNW) 04:11:41 437.505
nSIGHT-1 23 Nov 04:14:47 04:17:54 55° 228° (SW) 04:21:00 .
BEESAT 2 23 Nov 04:25:07 04:26:36 12° 308° (NW) 04:28:06 435.950
DOVE 4 23 Nov 04:52:31 04:56:51 29° 96° (E) 05:00:57 437.250
AO-85 23 Nov 04:53:30 04:55:53 16° 307° (NW) 04:58:19 145.980
AO-7 23 Nov 04:57:40 05:05:36 50° 293° (WNW) 05:13:33 .
ISS 23 Nov 05:06:32 05:08:44 17° 233° (SW) 05:10:56 437.550
ITAMSAT 1 23 Nov 05:06:38 05:11:08 31° 289° (WNW) 05:15:38 435.822/435.867
KKS-1 23 Nov 05:21:13 05:25:40 69° 258° (WSW) 05:30:08 437.445
LilacSat-2 23 Nov 05:33:09 05:34:24 11° 94° (E) 05:35:39 437.200
YUBILEINY 23 Nov 05:35:04 05:43:41 67° 92° (E) 05:52:23 435.215
XW-2F 23 Nov 05:37:29 05:38:16 10° 94° (E) 05:39:02 145.980 - 146.000
STARS 23 Nov 05:39:13 05:43:36 69° 76° (ENE) 05:48:01 437.465
RS-15 23 Nov 05:49:46 06:00:03 40° 254° (WSW) 06:09:57 29.354- 29.394
KAITUO 1B 23 Nov 05:59:56 06:02:25 17° 96° (E) 06:04:54 145.475/437.950
XW-2D 23 Nov 06:19:32 06:23:14 49° 100° (E) 06:26:57 145.860 - 145.880
DOVE 4 23 Nov 06:30:20 06:34:17 23° 290° (WNW) 06:38:04 437.250
SO-50 23 Nov 06:31:20 06:35:36 34° 58° (ENE) 06:39:53 436.795
HO-68 23 Nov 06:33:31 06:38:56 23° 96° (E) 06:44:17 435.675
XW-2B 23 Nov 06:34:21 06:38:10 78° 101° (ESE) 06:41:59 145.730 - 145.750
NUDT-PHONESAT 23 Nov 06:39:34 06:43:14 58° 100° (E) 06:46:54 437.300
SEEDS 23 Nov 06:47:01 06:48:11 11° 93° (E) 06:49:20 437.485
CUTE-I 23 Nov 06:53:42 06:59:05 85° 104° (ESE) 07:04:24 437.470
XW-2C 23 Nov 07:00:16 07:03:53 42° 285° (WNW) 07:07:30 145.795 - 145.815
LilacSat-2 23 Nov 07:05:13 07:08:42 33° 286° (WNW) 07:12:11 437.200
XW-2F 23 Nov 07:08:57 07:12:25 34° 285° (WNW) 07:15:53 145.980 - 146.000
FALCONSAT 3 23 Nov 07:17:19 07:19:53 18° 147° (SSE) 07:22:27 435.103
STRAND 1 23 Nov 07:27:11 07:32:20 86° 260° (W) 07:37:30 437.568
XW-2A 23 Nov 07:28:06 07:29:46 13° 95° (E) 07:31:28 145.665 - 145.685
KAITUO 1B 23 Nov 07:33:19 07:36:16 22° 287° (WNW) 07:39:13 145.475/437.950
YUBILEINY 23 Nov 07:34:57 07:41:02 21° 288° (WNW) 07:47:11 435.215
CUBEBUG 2 23 Nov 07:37:41 07:41:41 47° 100° (E) 07:45:41 437.445
CUTE 1.7 + AOD 2 23 Nov 07:53:53 07:58:03 52° 284° (WNW) 08:02:12 437.475
FO-29 23 Nov 08:10:37 08:16:56 57° 72° (ENE) 08:24:03 435.910
SO-50 23 Nov 08:12:28 08:15:47 19° 250° (WSW) 08:19:06 436.795
ZACube-1 23 Nov 08:14:51 08:18:39 34° 99° (E) 08:22:29 437.345
AAUSAT CUBESAT 2 23 Nov 08:19:28 08:23:39 70° 101° (E) 08:27:48 437.432
HO-68 23 Nov 08:19:55 08:26:49 53° 289° (WNW) 08:33:42 435.675
SEEDS 23 Nov 08:19:57 08:23:58 43° 285° (WNW) 08:27:59 437.485
UWE-3 23 Nov 08:29:33 08:33:40 68° 283° (WNW) 08:37:48 435.000/436.395/437.385
PCSat 23 Nov 08:44:58 08:48:37 18° 55° (NE) 08:52:13 145.827
FALCONSAT 3 23 Nov 08:55:00 08:58:41 88° 160° (SSE) 09:02:22 435.103
XW-2A 23 Nov 08:59:47 09:02:23 21° 287° (WNW) 09:04:58 145.665 - 145.685
AO-73 23 Nov 09:04:09 09:08:15 60° 284° (WNW) 09:12:24 145.935
UNISAT 6 23 Nov 09:12:48 09:16:57 35° 74° (ENE) 09:21:02 437.425
TIGRISAT 23 Nov 09:16:29 09:20:38 35° 74° (ENE) 09:24:42 435.000
Oscar 11 23 Nov 09:17:53 09:22:11 66° 283° (WNW) 09:26:28 .
PRISM 23 Nov 09:30:07 09:32:37 16° 69° (ENE) 09:35:07 437.425
ZACube-1 23 Nov 09:52:28 09:54:36 14° 290° (WNW) 09:56:44 437.345
FO-29 23 Nov 09:57:54 10:02:25 19° 269° (W) 10:07:16 435.910
DELFI C3 23 Nov 10:03:01 10:07:00 78° 102° (ESE) 10:10:57 145.870
AIST 2D 23 Nov 10:17:09 10:18:42 13° 71° (ENE) 10:20:14 435.315
PCSat 23 Nov 10:27:01 10:32:14 50° 250° (WSW) 10:37:25 145.827
EO-88 23 Nov 10:31:20 10:34:59 85° 100° (E) 10:38:38 145.990 - 145.960
FALCONSAT 3 23 Nov 10:34:31 10:37:58 38° 354° (N) 10:41:26 435.103
Max Valier Satellite 23 Nov 10:38:46 10:42:18 46° 284° (WNW) 10:45:50 145.860
QB50P2 23 Nov 10:48:20 10:50:33 14° 69° (ENE) 10:52:46 145.880/145.840
LO-87 23 Nov 10:49:59 10:51:15 12° 94° (E) 10:52:31 145.935 - 145.965
UNISAT 6 23 Nov 10:50:52 10:53:39 16° 265° (W) 10:56:24 437.425
ESTCUBE 1 23 Nov 10:54:14 10:55:53 12° 94° (E) 10:57:30 437.505/2401.250
TIGRISAT 23 Nov 10:54:32 10:57:19 16° 265° (W) 11:00:04 435.000
PRISM 23 Nov 11:03:58 11:07:34 29° 262° (W) 11:11:12 437.425
BEESAT 3 23 Nov 11:27:46 11:31:19 32° 59° (ENE) 11:34:48 437.485
DUCHIFAT 1 23 Nov 11:32:11 11:35:56 32° 73° (ENE) 11:39:41 145.980
EO-79 23 Nov 11:42:11 11:46:22 60° 75° (ENE) 11:50:32 145.935-145.965
NANOSAT C BR1 23 Nov 11:43:47 11:47:54 54° 75° (ENE) 11:52:01 145.865
AIST 2D 23 Nov 11:48:45 11:51:34 23° 263° (W) 11:54:23 435.315
POLYITAN 1 23 Nov 11:58:08 12:02:23 83° 258° (WSW) 12:06:37 437.675
FALCONSAT 3 23 Nov 12:13:56 12:17:27 41° 9° (N) 12:20:58 435.103
BUGSAT 1 23 Nov 12:15:17 12:18:36 23° 72° (ENE) 12:21:53 437.445
O/OREOS (USA 219) 23 Nov 12:21:08 12:24:48 24° 102° (ESE) 12:28:28 437.305
LO-87 23 Nov 12:21:39 12:24:38 26° 286° (WNW) 12:27:35 145.935 - 145.965
QB50P2 23 Nov 12:22:04 12:25:58 35° 261° (W) 12:29:52 145.880/145.840
ESTCUBE 1 23 Nov 12:28:29 12:32:49 46° 286° (WNW) 12:37:08 437.505/2401.250
VELOX 1 23 Nov 12:38:13 12:41:58 26° 97° (E) 12:45:40 145.980
Oscar 19 23 Nov 12:41:47 12:46:03 28° 70° (ENE) 12:50:20 437.125/150
BEESAT 2 23 Nov 12:44:56 12:48:56 72° 62° (ENE) 12:52:51 435.950
JUGNU 23 Nov 12:46:53 12:50:33 17° 164° (SSE) 12:54:13 437.505
NO-84 23 Nov 12:58:09 12:59:40 12° 119° (ESE) 13:01:15 435.350 FM
BEESAT 3 23 Nov 13:06:36 13:08:29 13° 252° (WSW) 13:10:20 437.485
DUCHIFAT 1 23 Nov 13:09:16 13:11:35 14° 265° (W) 13:13:56 145.980
SPROUT 23 Nov 13:15:36 13:19:44 57° 284° (WNW) 13:23:52 437.525
DX 1 23 Nov 13:16:54 13:19:09 14° 95° (E) 13:21:24 434.975-435.025
50 SAT 23 Nov 13:25:12 13:27:12 15° 96° (E) 13:29:11 437.505
Gurwin Techsat 1B 23 Nov 13:26:17 13:31:28 57° 74° (ENE) 13:36:40 435.225
AO-85 23 Nov 13:27:00 13:31:52 78° 63° (ENE) 13:37:04 145.980
BUGSAT 1 23 Nov 13:50:39 13:53:48 20° 263° (W) 13:56:57 437.445
UKube-1 23 Nov 13:52:29 13:55:52 22° 97° (E) 13:59:14 .
FALCONSAT 3 23 Nov 13:53:01 13:56:41 69° 202° (SSW) 14:00:20 435.103
AO-7 23 Nov 13:59:22 14:05:44 25° 61° (ENE) 14:12:04 .
O/OREOS (USA 219) 23 Nov 14:00:21 14:04:03 24° 295° (WNW) 14:07:45 437.305
VELOX 1 23 Nov 14:14:54 14:18:11 20° 290° (WNW) 14:21:26 145.980
Oscar 19 23 Nov 14:21:02 14:25:14 26° 263° (W) 14:29:27 437.125/150
NO-84 23 Nov 14:33:18 14:36:32 37° 314° (NW) 14:40:03 435.350 FM
JUGNU 23 Nov 14:34:08 14:39:01 27° 174° (S) 14:43:54 437.505
ITAMSAT 1 23 Nov 14:40:19 14:44:11 21° 68° (ENE) 14:48:02 435.822/435.867
M-CUBED/EXP-1 PRIME 23 Nov 14:43:25 14:46:51 64° 255° (WSW) 14:50:34 437.505
DX 1 23 Nov 14:51:22 14:55:23 36° 287° (WNW) 14:59:23 434.975-435.025
50 SAT 23 Nov 14:57:07 14:59:06 16° 288° (WNW) 15:01:04 437.505
Gurwin Techsat 1B 23 Nov 15:09:20 15:11:39 13° 267° (W) 15:13:58 435.225
UKube-1 23 Nov 15:28:21 15:31:43 23° 289° (WNW) 15:35:05 .
FALCONSAT 3 23 Nov 15:33:31 15:35:23 13° 215° (SW) 15:37:15 435.103
MOZHAYETS 4 23 Nov 15:45:27 15:50:02 84° 102° (ESE) 15:54:37
BEESAT 23 Nov 15:46:42 15:51:23 59° 101° (ESE) 15:56:03 436.000
AO-7 23 Nov 15:49:44 15:57:50 60° 256° (WSW) 16:06:01 .
DOVE 4 23 Nov 15:52:28 15:55:37 17° 68° (ENE) 15:58:53 437.250
YUBILEINY 23 Nov 15:53:39 16:00:32 25° 73° (ENE) 16:07:19 435.215
ITUPSAT 1 23 Nov 15:58:10 16:02:56 79° 102° (ESE) 16:07:41 437.325
CUBESAT XI-V 23 Nov 16:04:36 16:08:32 26° 97° (E) 16:12:28 437.345
ITAMSAT 1 23 Nov 16:18:35 16:23:20 36° 261° (W) 16:28:07 435.822/435.867
JUGNU 23 Nov 16:22:34 16:27:34 29° 184° (S) 16:32:32 437.505
SRMSAT 23 Nov 16:23:53 16:28:14 21° 167° (SSE) 16:32:35 437.500
XW-2D 23 Nov 16:57:58 16:58:30 10° 69° (ENE) 16:59:02 145.860 - 145.880
XW-2B 23 Nov 17:11:06 17:13:20 15° 71° (ENE) 17:15:34 145.730 - 145.750
NUDT-PHONESAT 23 Nov 17:15:19 17:16:15 11° 70° (ENE) 17:17:11 437.300
KKS-1 23 Nov 17:18:02 17:22:06 34° 99° (E) 17:26:07 437.445
BEESAT 23 Nov 17:27:26 17:28:35 11° 294° (WNW) 17:29:42 436.000
DOVE 4 23 Nov 17:28:05 17:32:48 44° 262° (W) 17:37:46 437.250
